Weather History for Buffalo, WY

Change the Weather History Date:

Sunday, September 8, 2013

  Actual Average Record
Temperature  
Mean Temperature 68 °F 62 °F  
Max Temperature 78 °F 76 °F 93 °F (1998)
Min Temperature 57 °F 48 °F 33 °F (2008)
Degree Days  
Heating Degree Days 0 5  
Month to date heating degree days 0 35  
Since 1 July heating degree days 1 100  
Cooling Degree Days 3 2  
Month to date cooling degree days 82 24  
Year to date cooling degree days 696 470  
Growing Degree Days 18 (Base 50)    
Moisture  
Dew Point 58 °F    
Average Humidity 72    
Maximum Humidity 90    
Minimum Humidity 53    
Precipitation  
Precipitation 0.15 in 0.04 in 0.15 in (2013)
Month to date precipitation 0.90 0.30  
Year to date precipitation 5.32 10.57  
Sea Level Pressure  
Sea Level Pressure 29.94 in    
Wind  
Wind Speed 6 mph (North)    
Max Wind Speed 22 mph    
Max Gust Speed 28 mph    
Visibility 10 miles    
Events Rain , Thunderstorm    
T = Trace of Precipitation, MM = Missing Value Source: NWS Daily Summary

Daily Weather History Graph

Daily Weather History Graph

Search for Another Location

Airport:

Trip Planner

Search our weather history database for the weather conditions in past years. The results will help you decide how hot, cold, wet, or windy it might be!

Date:

Astronomy

Sep. 08, 2013 Rise Set
Actual Time 6:38 AM MDT 7:29 PM MDT
Civil Twilight 6:08 AM MDT 7:59 PM MDT
Nautical Twilight 5:33 AM MDT 8:34 PM MDT
Astronomical Twilight 4:56 AM MDT 9:10 PM MDT
Moon 10:08 AM MDT (9/8) 8:56 PM MDT (9/8)
Length of Visible Light 13h 50m
Length of Day
12h 51m
Waxing Crescent, 11% of the Moon is Illuminated
Sep 8
Waxing Crescent
Sep 12
First Quarter
Sep 19
Full
Sep 26
Last Quarter
Oct 4
New

Hourly Weather History & Observations

Time (MDT) Temp. Dew Point Humidity Pressure Visibility Wind Dir Wind Speed Gust Speed Precip Events Conditions
12:53 AM 64.0 °F 55.9 °F 75% 29.90 in 10.0 mi North 8.1 mph - N/A   Partly Cloudy
1:53 AM 62.1 °F 57.9 °F 86% 29.92 in 10.0 mi North 6.9 mph - N/A   Clear
2:07 AM 62.6 °F 59.0 °F 88% 30.10 in 10.0 mi North 9.2 mph - N/A   Partly Cloudy
2:53 AM 62.1 °F 59.0 °F 90% 29.91 in 10.0 mi NNW 9.2 mph - N/A   Scattered Clouds
3:53 AM 62.1 °F 57.9 °F 86% 29.92 in 10.0 mi NNW 12.7 mph 20.7 mph N/A   Clear
4:53 AM 61.0 °F 57.9 °F 90% 29.94 in 10.0 mi NNW 11.5 mph 25.3 mph N/A   Clear
5:20 AM 60.8 °F 57.2 °F 88% 30.12 in 10.0 mi NNE 11.5 mph - N/A   Mostly Cloudy
5:37 AM 60.8 °F 57.2 °F 88% 30.12 in 10.0 mi NNE 10.4 mph - N/A   Overcast
5:53 AM 61.0 °F 57.9 °F 90% 29.94 in 10.0 mi North 6.9 mph - N/A   Overcast
6:33 AM 60.8 °F 57.2 °F 88% 30.11 in 10.0 mi Calm Calm - N/A   Overcast
6:53 AM 61.0 °F 57.9 °F 90% 29.94 in 10.0 mi Calm Calm - N/A   Overcast
7:01 AM 60.8 °F 57.2 °F 88% 30.11 in 10.0 mi ENE 3.5 mph - N/A   Overcast
7:19 AM 60.8 °F 57.2 °F 88% 30.10 in 10.0 mi Calm Calm - N/A   Scattered Clouds
7:53 AM 61.0 °F 57.9 °F 90% 29.94 in 10.0 mi Calm Calm - N/A   Clear
8:04 AM 62.6 °F 57.2 °F 82% 30.09 in 10.0 mi Calm Calm - N/A   Partly Cloudy
8:53 AM 63.0 °F 57.9 °F 84% 29.94 in 10.0 mi Calm Calm - N/A   Clear
9:53 AM 64.9 °F 60.1 °F 84% 29.93 in 10.0 mi SE 4.6 mph - N/A   Clear
10:53 AM 69.1 °F 57.9 °F 68% 29.93 in 10.0 mi ESE 5.8 mph - N/A   Clear
11:53 AM 73.9 °F 55.9 °F 53% 29.90 in 10.0 mi Variable 4.6 mph - N/A   Clear
12:53 PM 75.9 °F 57.0 °F 52% 29.87 in 10.0 mi NNE 5.8 mph - N/A   Clear
1:53 PM 75.0 °F 57.9 °F 55% 29.87 in 10.0 mi North 8.1 mph - N/A   Overcast
2:53 PM 73.0 °F 57.9 °F 59% 29.85 in 10.0 mi NNW 8.1 mph - N/A   Mostly Cloudy
3:21 PM 68.0 °F 60.8 °F 78% 30.00 in 10.0 mi NW 8.1 mph - 0.00 in Rain , Thunderstorm Light Thunderstorms and Rain
3:36 PM 71.6 °F 60.8 °F 69% 29.99 in 10.0 mi NNW 5.8 mph - 0.00 in   Overcast
3:53 PM 72.0 °F 60.1 °F 66% 29.83 in 10.0 mi WNW 4.6 mph - 0.00 in   Mostly Cloudy
4:40 PM 69.8 °F 62.6 °F 78% 29.98 in 9.0 mi Calm Calm - 0.01 in Rain , Thunderstorm Light Rain
4:53 PM 70.0 °F 61.0 °F 73% 29.84 in 10.0 mi Calm Calm - 0.01 in Rain , Thunderstorm Light Thunderstorms and Rain
5:19 PM 64.4 °F 60.8 °F 88% 29.98 in 2.5 mi North 17.3 mph 25.3 mph 0.08 in Rain Heavy Rain
5:29 PM 62.6 °F 55.4 °F 77% 29.98 in 6.0 mi NNW 21.9 mph 26.5 mph 0.09 in Rain Light Rain
5:53 PM 62.1 °F 55.9 °F 80% 29.86 in 10.0 mi NNW 10.4 mph 21.9 mph 0.09 in   Overcast
6:17 PM 62.6 °F 60.8 °F 94% 29.99 in 10.0 mi North 13.8 mph 24.2 mph 0.00 in   Overcast
6:53 PM 63.0 °F 59.0 °F 87% 29.86 in 7.0 mi North 10.4 mph - 0.02 in Rain Light Rain
7:53 PM 62.1 °F 57.9 °F 86% 29.83 in 10.0 mi WNW 4.6 mph - 0.03 in   Mostly Cloudy
8:53 PM 62.1 °F 57.0 °F 84% 29.85 in 10.0 mi SSW 9.2 mph - N/A   Mostly Cloudy
9:53 PM 61.0 °F 55.0 °F 81% 29.84 in 10.0 mi South 5.8 mph - N/A   Clear
10:53 PM 60.1 °F 53.1 °F 78% 29.83 in 10.0 mi West 3.5 mph - N/A   Clear
11:53 PM 59.0 °F 52.0 °F 78% 29.81 in 10.0 mi Calm Calm - N/A   Clear